Location: Unspecified
(49.2170°N, 0.0000°E)
Time: 22:41:25
(UTC+00:00)

A-11 Canister half - Pass Details

Date: 16 June 2019
Orbit: 1526 x 1683 km, 47.3° (Epoch: 19 July)

Event Time Altitude Azimuth Distance (km) Brightness Sun altitude
Rises 04:54:42 0° 201° (SSW) 4,724 11.1 7.5°
Reaches altitude 10° 04:58:17 10° 191° (S) 3,724 10.7 8.0°
Maximum altitude 05:05:54 29° 136° (SE) 2,517 10.5 9.1°
Drops below altitude 10° 05:13:26 10° 81° (E) 3,696 13.0 10.2°
Sets 05:16:58 0° 71° (ENE) 4,683 13.8 10.7°
